STARLINK-5712, 55615

Orbit data source: Space-Track

STARLINK-5712, 55615 is a payload satellite owned by SpaceX/Seattle (US) in LEO that was launched on Sun, 12 Feb 2023 UTC via an FALCON 9 launch vehicle from the Air Force Eastern Test Range (AFETR). Payload-class satellites include a variety of spacecraft equipped with specific instruments for various scientific and technological missions. These include communications satellites like Starlink; space stations such as the ISS; scientific satellites like the Hubble; Earth observation satellites from companies like Planet Labs, Umbra, and HawkEye 360; GPS; miniature CubeSats for education and research; and military/defense satellites.

Loading next visibility...
Identifier
55615, 2023-020AY
Orbit
LEO
Country
Flag of USUS
Related business
Manufacturer
SpaceX/Seattle
Mission
Operational Commercial Communications
Bus & Motor
STARLINK, Unknown motor
Mass
305 kg wet, ~290 kg dry
Launch date (UTC)
2023-02-12 (3 years ago)
Launch vehicle
FALCON 9
Launch site
Air Force Eastern Test Range (AFETR)
Object type
Payload
Rocket body
Debris
Shape & HBR
Box + 1 Pan, 10.1 m
Radar Cross Section
13.562 m², Large (>1 m²)

Expand to show TLE details & history
Last TLE update: 19 hours ago

TLE from 19 hours ago
0 STARLINK-5712
1 55615U 23020AY  26061.60275108  .00002251  00000-0  18163-3 0  9995
2 55615  43.0050  30.1361 0001270 262.8654  97.2044 15.02539630168008
Epoch: 2026-03-02T14:27Z
TLE epoch observation values (Epoch: 2026-03-02T14:27:57.693Z)
Latitude
-0.00001°
Longitude
12.7519°
Altitude
558.957 km
Speed
7.584 km/s
True Right ascension
02h 00m 32s
True Declination
0° 00' 00"
Sunlit
Object was in daylight at epoch
Visualization orbit readout
Latitude
Unknown
Longitude
Unknown
Altitude
Unknown
Speed
Unknown
Apparent Right ascension
Unknown
Apparent Declination
Unknown
Sunlit
N/A
Visualization observer readout
Local Sidereal Time
13:10:45
Azimuth
Unknown
Elevation
Unknown
Doppler factor
Unknown
Orbital elements
Apogee altitude
561.873 km
Perigee altitude
560.11 km
Semi-major axis
6,939.128 km
Eccentricity
0.00013
Inclination
43.005°
RAAN
30.1361°
Arg. of periapsis
262.8654°
True anomaly
97.21884°
Mean anomaly
97.2044°
Eccentric anomaly
97.21162°
Mean motion
3.75479 °/min
Orbital period
95.88 mins
BSTAR
0.00018163
Loading maneuver chart data...
Computing Atmospheric mass density...
Loading historical data...
Loading historical data...
Loading historical data...
Loading historical data...
Loading historical data...
Loading historical data...
Loading historical data...

Documentation

Showing up to 5 results
|